EW8060 Weather Reports


time (UTC)temp
C
wind
direction
speed
KPH
gust
KPH
rain 1hr
cm
rain 24hr
cm
rain mn
cm
humidity
%
barometer
mb
20260504081534 11 148 0.0 0.0 0.00 0.00 0.00 48 1017.4
20260504080535 11 163 0.0 0.0 0.00 0.00 0.00 48 1017.5
20260504050549 11 116 0.0 0.0 0.00 0.00 0.00 48 1017.9
20260504045528 11 100 0.0 0.0 0.00 0.00 0.00 50 1017.7
20260504044528 11 233 0.0 0.0 0.00 0.00 0.00 49 1017.6
20260504043528 11 233 0.0 0.0 0.00 0.00 0.00 49 1017.4
20260504042608 11 287 0.0 0.0 0.00 0.00 0.00 48 1017.5
20260504041527 11 124 0.0 0.0 0.00 0.00 0.00 48 1017.5
20260504040547 11 91 0.0 0.0 0.00 0.00 0.00 45 1017.5
20260504035547 11 88 0.0 0.0 0.00 0.00 0.00 46 1017.5
20260504034526 10 88 0.0 0.0 0.00 0.00 0.00 47 1017.5
20260504033526 10 78 0.0 0.0 0.00 0.00 0.00 49 1017.6
20260504032526 9 76 0.0 0.0 0.00 0.00 0.00 50 1017.6
20260504031525 9 76 0.0 0.0 0.00 0.00 0.00 52 1017.6
20260504030525 9 76 0.0 0.0 0.00 0.00 0.00 51 1017.7
20260504025525 9 76 0.0 0.0 0.00 0.00 0.00 52 1017.7
20260504024524 9 76 0.0 0.0 0.00 0.00 0.00 52 1017.8
20260504023524 10 76 0.0 0.0 0.00 0.00 0.00 51 1017.7
20260504022544 10 62 0.0 0.0 0.00 0.00 0.00 48 1017.6
20260504021523 11 73 0.0 0.0 0.00 0.00 0.00 46 1017.4
20260504020523 11 84 0.0 0.0 0.00 0.00 0.00 44 1017.3
20260504015523 10 84 0.0 0.0 0.00 0.00 0.00 44 1017.2
20260504014602 11 83 0.0 0.0 0.00 0.00 0.00 44 1017.3
20260504013542 11 83 0.0 0.0 0.00 0.00 0.00 44 1017.0
20260504012522 12 84 0.0 0.0 0.00 0.00 0.00 39 1017.0
20260504011523 11 84 0.0 0.0 0.00 0.00 0.00 40 1016.8
20260504010521 11 84 0.0 0.0 0.00 0.00 0.00 44 1016.7
20260504005520 12 125 0.0 0.0 0.00 0.00 0.00 39 1016.7
20260504004520 12 125 0.0 0.0 0.00 0.00 0.00 37 1016.5
20260504003540 12 125 0.0 0.0 0.00 0.00 0.00 37 1016.5
20260504002519 13 125 0.0 0.0 0.00 0.00 0.00 38 1016.4
20260504001519 13 125 0.0 0.0 0.00 0.00 0.00 37 1016.5
20260504000539 15 125 0.0 0.0 0.00 0.00 0.00 37 1016.6
20260503235520 16 125 0.0 0.0 0.00 0.00 0.00 33 1016.5
20260503234518 17 124 0.0 0.0 0.00 0.00 0.00 29 1016.4
20260503233517 17 88 0.0 0.0 0.00 0.00 0.00 27 1016.4
20260503232517 17 19 0.0 0.0 0.00 0.00 0.00 27 1016.5
20260503231557 17 88 0.0 0.0 0.00 0.00 0.00 26 1016.4
20260503230516 17 92 0.0 0.0 0.00 0.00 0.00 26 1016.3
20260503225517 18 58 0.0 0.0 0.00 0.00 0.00 26 1016.2
20260503224517 18 98 0.0 0.0 0.00 0.00 0.00 26 1016.3
20260503223516 18 134 0.0 0.0 0.00 0.00 0.00 26 1016.3
20260503222515 18 88 0.0 0.0 0.00 0.00 0.00 26 1016.4
20260503221515 18 84 0.0 0.0 0.00 0.00 0.00 26 1016.4
20260503220515 18 101 0.0 0.0 0.00 0.00 0.00 26 1016.5
20260503215516 18 103 0.0 0.0 0.00 0.00 0.00 26 1016.5
20260503214514 18 107 0.0 0.0 0.00 0.00 0.00 27 1016.7
20260503213534 18 76 0.0 0.0 0.00 0.00 0.00 26 1016.7
20260503212513 17 74 0.0 0.0 0.00 0.00 0.00 26 1016.7
20260503211513 18 5 0.0 0.0 0.00 0.00 0.00 28 1016.8
20260503210513 18 127 0.0 0.0 0.00 0.00 0.00 27 1016.8
20260503205512 17 192 0.0 0.0 0.00 0.00 0.00 28 1016.8
20260503204512 17 21 0.0 0.0 0.00 0.00 0.00 28 1016.9
20260503203512 17 68 0.0 0.0 0.00 0.00 0.00 26 1017.0
20260503202512 17 109 0.0 0.0 0.00 0.00 0.00 27 1017.0
20260503201512 17 16 0.0 0.0 0.00 0.00 0.00 27 1017.2
20260503200511 17 85 0.0 0.0 0.00 0.00 0.00 28 1017.4
20260503195531 17 201 0.0 0.0 0.00 0.00 0.00 30 1017.5
20260503194511 16 126 0.0 0.0 0.00 0.00 0.00 26 1017.8
20260503193510 17 40 0.0 0.0 0.00 0.00 0.00 28 1017.8
20260503192510 16 208 0.0 0.0 0.00 0.00 0.00 31 1017.9
20260503191510 16 169 0.0 0.0 0.00 0.00 0.00 31 1018.0
20260503190509 16 112 0.0 0.0 0.00 0.00 0.00 32 1018.2
20260503185509 15 67 0.0 0.0 0.00 0.00 0.00 29 1018.4
20260503184508 15 79 0.0 0.0 0.00 0.00 0.00 32 1018.6
20260503183508 15 126 0.0 0.0 0.00 0.00 0.00 32 1018.8
20260503182528 15 107 0.0 0.0 0.00 0.00 0.00 31 1018.9
20260503181507 15 182 0.0 0.0 0.00 0.00 0.00 32 1019.1
20260503180508 14 105 0.0 0.0 0.00 0.00 0.00 35 1019.1
20260503175509 14 73 0.0 0.0 0.00 0.00 0.00 33 1019.3
20260503174507 14 42 0.0 0.0 0.00 0.00 0.00 34 1019.3
20260503173506 14 168 0.0 0.0 0.00 0.00 0.00 34 1019.5
20260503172506 13 280 0.0 0.0 0.00 0.00 0.00 36 1019.5
20260503171506 13 98 0.0 0.0 0.00 0.00 0.00 36 1019.7
20260503170506 13 35 0.0 0.0 0.00 0.00 0.00 35 1019.9
20260503150502 10 73 0.0 0.0 0.00 0.00 0.00 43 1020.8
20260503130458 7 105 0.0 0.0 0.00 0.00 0.00 48 1020.8
20260503110454 5 74 0.0 0.0 0.00 0.00 0.00 57 1019.6